Regional Weather Roundup
Issued by NWS Spokane, WA

Home | Current Version | Previous Version | Text Only | Print | Product List | Glossary On
Versions: 1 2 3 4 5 6 7 8 9 10 11 12 13 14 15 16 17 18 19 20 21 22 23 24 25 26 27 28 29 30 31 32 33 34 35 36 37 38 39 40 41 42 43 44 45 46 47 48 49 50
408
NZUS01 KOTX 161725
RWROTX

Eastern Washington/Northern Idaho Roundup
National Weather Service, Spokane WA
900 AM PST SAT DEC 16 2017

Note: "fair" indicated few or no clouds below 12,000 feet with no
significant weather and/or obstructions to visibility.

...Northeast Washington and Northern Idaho Panhandle...

CITY           SKY/WX    TMP DP  RH WIND       PRES   REMARKS
Spokane Intl   SNOW      25  25 100 SW5       30.22R VSB 1/4 WCI  19
Spokane Downto CLOUDY    28  26  92 SW6       30.24R FOG     WCI  22
Coeur d Alene  CLOUDY    27  25  92 SW5       30.21R WCI  22
Deer Park      CLOUDY    26  25  96 CALM      30.22R
Sandpoint      CLOUDY    30  27  86 W5        30.21R WCI  25
Bonners Ferry  CLOUDY    28  25  86 S5        30.18R WCI  23

...Southeast Washington and southern Idaho Panhandle...

CITY           SKY/WX    TMP DP  RH WIND       PRES   REMARKS
Walla Walla    CLOUDY    34  31  88 SW5       30.27R WCI  30
Pullman/Moscow CLOUDY    25  23  92 CALM      30.22R FOG
Lewiston       CLOUDY    30  29  96 S3        30.26R
Lowell           N/A     31  30  96 VRB3      30.25R
Grangeville    CLOUDY    27  27 100 SE9       30.16R WCI  17

...Columbia Basin...

CITY           SKY/WX    TMP DP  RH WIND       PRES   REMARKS
Ephrata        CLOUDY    28  24  85 N3        30.28R
Moses Lake     CLOUDY    29  28  96 N3        30.29R FOG
Pasco          CLOUDY    33  31  92 CALM      30.33R
Richland       CLOUDY    33  32  96 W6G29     30.34R FOG     WCI  28
Hermiston      FOG       27  26  96 W3        30.30R VSB<1/4
Pendleton      SUNNY     35  31  85 W5        30.25R

...East Slopes Cascades...

CITY           SKY/WX    TMP DP  RH WIND       PRES   REMARKS
The Dalles     CLOUDY    44  35  70 NW10      30.32R
Yakima         CLOUDY    27  23  85 CALM      30.28R
Ellensburg     CLOUDY    39  29  67 VRB7      30.22R
Stampede Pass  FOG       30  28  92 VRB5      30.19R VSB 1/4 WCI  25
Wenatchee      CLOUDY    30  29  96 CALM      30.27R FOG
Omak           CLOUDY    28  28 100 N5        30.28R WCI  23
Sunnyside      CLOUDY    24  24  99 CALM      30.31R FOG

...Southern British Columbia...

CITY           SKY/WX    TMP DP  RH WIND       PRES   REMARKS
Penticton      PTCLDY    30  28  93 S10       30.27R WCI  21
Castlegar      MOCLDY    30  27  86 SE2       30.24R
Cranbrook      PTCLDY    14  12  92 VRB2      30.11R
Osoyoos          N/A     32  27  80 S3          N/A
Creston          N/A     30  27  86 E2          N/A

...Western Montana...

CITY           SKY/WX    TMP DP  RH WIND       PRES   REMARKS
Kalispell      CLOUDY    27  25  92 CALM      30.08R
Libby            N/A     27  25  93 CALM      30.12R
Missoula       CLOUDY    28  27  96 CALM      30.08R

...Neighboring Cities...

CITY           SKY/WX    TMP DP  RH WIND       PRES   REMARKS
Seattle        CLOUDY    40  38  93 SE6       30.32R
Portland       CLOUDY    41  39  93 SE7       30.38R
Boise          SUNNY     26  22  84 NW9       30.11R WCI  17
Great Falls    CLOUDY    30  27  88 N6        30.00R WCI  24
Calgary        PTCLDY    28   9  43 SW5       29.95R WCI  23



USA.gov is the U.S. government's official web portal to all federal, state and local government web resources and services.